sat.trackr.live / text

‹ back to catalog

STARLINK-30704

NORAD 57946 · 2023-148M

PAYLOAD ACTIVE UNKNOWN

§ Identity

Operator
Country
US
Launch date
2023-09-25
Launch site
AFWTR
Launch vehicle
Mass (kg)
RCS (m²)

Purposes: comms

External: N2YO · Heavens-Above · Gunter

§ Orbital elements

Epoch: 2026-09-20T06:25:12.750816Z

Period
93.85 min
Inclination
53.1596°
Eccentricity
0.0001343
Mean motion
15.34392428 rev/d
Perigee alt
461.8 km
Apogee alt
463.6 km
Semi-major
6,840.9 km
B*
9.3654e-6
RAAN
274.4561°
Arg perigee
69.8162°
Mean anomaly
290.2985°
Rev number
16,715

§ Raw data

STARLINK-307041 57946U 23148M   26263.26750869 -.00000060  00000+0  93654-5 0  99992 57946  53.1596 274.4561 0001343  69.8162 290.2985 15.34392428167150

JSON: /api/v1/satellites/57946 · /tle

For live sub-satellite position, see the globe view (requires WebGL).

§ Visibility from observer

Set your observer location to see the next 7 days of passes ≥ 10°. The values pass through the URL so the page stays shareable.

No JS? Fill the form by hand. The geolocation button needs JavaScript.